Prague, Czech Republic

7:31 PM CET on March 25, 2017 (GMT +0100)
Prague-Ruzyne Airport

Weather History for LKPR - January, 2013

Change the Weather History Date:

Sunday, January 27, 2013

  Actual Average Record
Temperature  
Mean Temperature 22 °F -  
Max Temperature 30 °F 37 °F 54 °F (2016)
Min Temperature 14 °F 24 °F 8 °F (2006)
Degree Days  
Heating Degree Days 43    
Moisture  
Dew Point 23 °F    
Average Humidity 88    
Maximum Humidity 100    
Minimum Humidity 75    
Precipitation  
Precipitation 0.01 in 0.03 in - ()
Sea Level Pressure  
Sea Level Pressure 29.81 in    
Wind  
Wind Speed 7 mph ()    
Max Wind Speed 14 mph    
Max Gust Speed -    
Visibility 3.4 miles    
Events Snow    
Averages and records for this station are not official NWS values.
T = Trace of Precipitation, MM = Missing Value Source: Averaged Metar Reports

Daily Weather History Graph

Daily Weather History Graph

Search for Another Location

Airport or City:

Trip Planner

Search our weather history database for the weather conditions in past years. The results will help you decide how hot, cold, wet, or windy it might be!

Date:

Astronomy

Jan. 27, 2013 Rise Set
Actual Time 7:43 AM CET 4:48 PM CET
Civil Twilight 7:07 AM CET 5:24 PM CET
Nautical Twilight 6:28 AM CET 6:03 PM CET
Astronomical Twilight 5:50 AM CET 6:41 PM CET
Moon 5:34 PM CET (1/27) 7:19 AM CET (1/27)
Length of Visible Light 10h 16m
Length of Day
9h 05m
Full, 100% of the Moon is Illuminated
Jan 27
Full
Feb 3
Last Quarter
Feb 10
New
Feb 17
First Quarter
Feb 25
Full

Hourly Weather History & Observations

Time (CET) Temp. Windchill Dew Point Humidity Pressure Visibility Wind Dir Wind Speed Gust Speed Precip Events Conditions
12:00 AM 15.8 °F 6.1 °F 12.2 °F 86% 29.95 in 3.7 mi SSE 6.9 mph - N/A   Overcast
12:30 AM 15.8 °F 6.1 °F 12.2 °F 86% 29.95 in 4.3 mi SSE 6.9 mph - N/A   Overcast
1:00 AM 16 °F - 13 °F 80% 30.04 in 4 mi SSE 6.7 mph - -   Mist
1:00 AM 15.8 °F 5.1 °F 12.2 °F 86% 29.92 in 4.3 mi SSE 8.1 mph - N/A   Overcast
1:30 AM 15.8 °F 6.1 °F 14.0 °F 93% 29.92 in 4.3 mi SSE 6.9 mph - N/A   Overcast
2:00 AM 17.6 °F 9.3 °F 14.0 °F 86% 29.92 in 3.7 mi SSE 5.8 mph - N/A   Overcast
2:30 AM 19.4 °F 11.5 °F 15.8 °F 86% 29.92 in 4.3 mi SSE 5.8 mph - N/A   Overcast
3:00 AM 21.2 °F 13.6 °F 17.6 °F 86% 29.89 in 4.3 mi South 5.8 mph - N/A   Overcast
3:30 AM 19.4 °F 11.5 °F 15.8 °F 86% 29.89 in 5.0 mi South 5.8 mph - N/A   Overcast
4:00 AM 19.4 °F 10.4 °F 15.8 °F 86% 29.89 in 5.0 mi SSE 6.9 mph - N/A   Overcast
4:30 AM 19.4 °F 10.4 °F 15.8 °F 86% 29.89 in 4.3 mi South 6.9 mph - N/A   Overcast
5:00 AM 19.4 °F 8.6 °F 15.8 °F 86% 29.89 in 4.3 mi SSW 9.2 mph - N/A   Overcast
5:30 AM 23.0 °F 13.1 °F 19.4 °F 86% 29.89 in 4.3 mi SSW 9.2 mph - N/A   Overcast
6:00 AM 23.0 °F 11.1 °F 19.4 °F 86% 29.86 in 4.3 mi SW 12.7 mph - N/A   Overcast
6:30 AM 23.0 °F 13.1 °F 19.4 °F 86% 29.86 in 4.3 mi WSW 9.2 mph - N/A   Overcast
7:00 AM 24 °F - 20 °F 78% 29.97 in 4 mi WSW 11.2 mph - -   Mist
7:00 AM 23.0 °F 13.1 °F 19.4 °F 86% 29.89 in 4.3 mi WSW 9.2 mph - N/A   Overcast
7:30 AM 24.8 °F 12.9 °F 21.2 °F 86% 29.86 in 3.7 mi SW 13.8 mph - N/A   Mostly Cloudy
8:00 AM 23.0 °F 10.6 °F 19.4 °F 86% 29.86 in 3.1 mi SW 13.8 mph - N/A   Mostly Cloudy
8:30 AM 24.8 °F 13.4 °F 21.2 °F 86% 29.86 in 3.1 mi SW 12.7 mph - N/A   Mostly Cloudy
9:00 AM 24.8 °F 14.0 °F 21.2 °F 86% 29.86 in 3.1 mi SW 11.5 mph - N/A   Partly Cloudy
9:31 AM 24.8 °F 14.6 °F 23.0 °F 93% 29.86 in 3.1 mi SSW 10.4 mph - N/A   Scattered Clouds
10:00 AM 24.8 °F 12.9 °F 23.0 °F 93% 29.86 in 3.1 mi SSW 13.8 mph - N/A   Mostly Cloudy
10:30 AM 26.6 °F 19.1 °F 23.0 °F 86% 29.86 in 3.1 mi SSW 6.9 mph - N/A   Mostly Cloudy
11:00 AM 26.6 °F 19.1 °F 23.0 °F 86% 29.83 in 3.1 mi South 6.9 mph - N/A   Partly Cloudy
11:30 AM 26.6 °F 19.1 °F 23.0 °F 86% 29.83 in 3.1 mi SSW 6.9 mph - N/A Snow Light Snow
12:00 PM 28.4 °F 20.4 °F 23.0 °F 80% 29.83 in 2.8 mi SSW 8.1 mph - N/A Snow Light Snow
12:30 PM 28.4 °F 21.2 °F 24.8 °F 86% 29.83 in 3.1 mi SSW 6.9 mph - N/A   Mostly Cloudy
1:00 PM 29 °F - 24 °F 75% 29.89 in 3 mi SSW 8.9 mph - - Snow Light Snow
1:00 PM 28.4 °F 21.2 °F 24.8 °F 86% 29.80 in 3.1 mi SSW 6.9 mph - N/A   Mostly Cloudy
1:30 PM 30.2 °F 25.4 °F 24.8 °F 80% 29.80 in 3.7 mi South 4.6 mph - N/A   Mostly Cloudy
2:00 PM 30.2 °F 24.3 °F 24.8 °F 80% 29.80 in 3.7 mi SSW 5.8 mph - N/A   Mostly Cloudy
2:23 PM 30.2 °F 25.4 °F 26.6 °F 86% 29.77 in 3.7 mi South 4.6 mph - N/A   Scattered Clouds
2:30 PM 30.2 °F 25.4 °F 26.6 °F 86% 29.77 in 4.3 mi South 4.6 mph - N/A   Scattered Clouds
3:00 PM 30.2 °F 23.4 °F 24.8 °F 80% 29.77 in 4.3 mi SSE 6.9 mph - N/A   Scattered Clouds
3:30 PM 28.4 °F 21.2 °F 24.8 °F 86% 29.74 in 3.7 mi SE 6.9 mph - N/A   Mostly Cloudy
4:00 PM 28.4 °F 22.2 °F 24.8 °F 86% 29.74 in 3.7 mi SSE 5.8 mph - N/A   Mostly Cloudy
4:30 PM 28.4 °F 21.2 °F 24.8 °F 86% 29.74 in 3.7 mi SE 6.9 mph - N/A   Scattered Clouds
5:00 PM 28.4 °F 20.4 °F 24.8 °F 86% 29.74 in 3.7 mi SSE 8.1 mph - N/A Snow Light Snow
5:20 PM 28.4 °F 21.2 °F 26.6 °F 93% 29.74 in - SE 6.9 mph - N/A Snow Light Snow
5:30 PM 28.4 °F 22.2 °F 26.6 °F 93% 29.74 in 3.1 mi SE 5.8 mph - N/A Snow Light Snow
6:00 PM 28.4 °F 21.2 °F 26.6 °F 93% 29.74 in 3.7 mi SE 6.9 mph - N/A Snow Light Snow
6:23 PM 28.4 °F 21.2 °F 26.6 °F 93% 29.74 in 2.2 mi SE 6.9 mph - N/A Snow Light Snow
6:30 PM 28.4 °F 22.2 °F 26.6 °F 93% 29.74 in 2.5 mi SE 5.8 mph - N/A Snow Light Snow
6:38 PM 28.4 °F 22.2 °F 26.6 °F 93% 29.74 in 1.9 mi SSE 5.8 mph - N/A Snow Snow
7:00 PM 28 °F - 27 °F 92% 29.81 in 3 mi SSE 4.5 mph - - Snow Light Snow
7:00 PM 28.4 °F 21.2 °F 26.6 °F 93% 29.74 in 3.1 mi SSE 6.9 mph - N/A Snow Light Snow
7:30 PM 28.4 °F 20.4 °F 26.6 °F 93% 29.71 in 3.1 mi SE 8.1 mph - N/A Snow Light Snow
8:00 PM 28.4 °F 19.7 °F 26.6 °F 93% 29.71 in 4.3 mi SSE 9.2 mph - N/A   Scattered Clouds
8:11 PM 28.4 °F 20.4 °F 26.6 °F 93% 29.71 in 4.3 mi SSE 8.1 mph - N/A Snow Light Snow
8:30 PM 28.4 °F 20.4 °F 26.6 °F 93% 29.71 in 3.1 mi SSE 8.1 mph - N/A Snow Light Snow
9:00 PM 30.2 °F 21.9 °F 26.6 °F 86% 29.71 in 2.8 mi SSE 9.2 mph - N/A Snow Light Snow
9:30 PM 30.2 °F 22.6 °F 26.6 °F 86% 29.71 in 2.5 mi SSE 8.1 mph - N/A Snow Light Snow
10:00 PM 30.2 °F 21.9 °F 28.4 °F 93% 29.71 in - South 9.2 mph - N/A Snow Light Snow
10:30 PM 30.2 °F 21.9 °F 28.4 °F 93% 29.71 in - South 9.2 mph - N/A Snow Light Snow
10:49 PM 30.2 °F 23.4 °F 28.4 °F 93% 29.71 in 1.7 mi South 6.9 mph - N/A Snow Light Snow
11:00 PM 30.2 °F 24.3 °F 28.4 °F 93% 29.71 in 1.9 mi South 5.8 mph - N/A Snow Light Snow
11:30 PM 30.2 °F 21.9 °F 30.2 °F 100% 29.71 in 2.2 mi SSW 9.2 mph - N/A Snow Light Snow
11:34 PM 30.2 °F 21.3 °F 30.2 °F 100% 29.71 in 1.7 mi SSW 10.4 mph - N/A Snow Light Snow
11:47 PM 30.2 °F 21.3 °F 28.4 °F 93% 29.71 in 1.7 mi SSW 10.4 mph - N/A Snow Light Snow